Weather History for Marshalltown, IA

Change the Weather History Date:

Friday, November 15, 2013

  Actual Average Record
Temperature  
Mean Temperature 47 °F 37 °F  
Max Temperature 55 °F 46 °F 68 °F (2001)
Min Temperature 39 °F 27 °F 16 °F (2000)
Degree Days  
Heating Degree Days 18 28  
Month to date heating degree days 386 371  
Since 1 July heating degree days 935 1004  
Cooling Degree Days 0 0  
Month to date cooling degree days 0 0  
Year to date cooling degree days 872 728  
Moisture  
Dew Point 31 °F    
Average Humidity 69    
Maximum Humidity 92    
Minimum Humidity 46    
Precipitation  
Precipitation 0.00 in 0.09 in 0.52 in (2005)
Month to date precipitation 0.91 1.50  
Sea Level Pressure  
Sea Level Pressure 29.84 in    
Wind  
Wind Speed 7 mph (South)    
Max Wind Speed 14 mph    
Max Gust Speed -    
Visibility 10 miles    
Events      
T = Trace of Precipitation, MM = Missing Value Source: NWS Daily Summary

Daily Weather History Graph

Daily Weather History Graph

Search for Another Location

Airport:

Trip Planner

Search our weather history database for the weather conditions in past years. The results will help you decide how hot, cold, wet, or windy it might be!

Date:

Astronomy

Nov. 15, 2013 Rise Set
Actual Time 7:02 AM CST 4:50 PM CST
Civil Twilight 6:32 AM CST 5:20 PM CST
Nautical Twilight 5:58 AM CST 5:53 PM CST
Astronomical Twilight 5:25 AM CST 6:27 PM CST
Moon 3:48 PM CST (11/15) 4:57 AM CST (11/15)
Length of Visible Light 10h 48m
Length of Day
9h 47m
Waxing Gibbous, 96% of the Moon is Illuminated
Nov 15
Waxing Gibbous
Nov 17
Full
Nov 25
Last Quarter
Dec 2
New
Dec 9
First Quarter

Hourly Weather History & Observations

Time (CST) Temp. Windchill Dew Point Humidity Pressure Visibility Wind Dir Wind Speed Gust Speed Precip Events Conditions
12:53 AM 35.1 °F 31.0 °F 27.0 °F 72% 29.90 in 10.0 mi West 4.6 mph - N/A   Clear
1:53 AM 35.1 °F 32.2 °F 27.0 °F 72% 29.90 in 10.0 mi WSW 3.5 mph - N/A   Clear
2:53 AM 32.0 °F 27.5 °F 26.1 °F 79% 29.90 in 10.0 mi SW 4.6 mph - N/A   Clear
3:53 AM 30.0 °F 24.1 °F 26.1 °F 85% 29.90 in 10.0 mi SW 5.8 mph - N/A   Clear
4:53 AM 32.0 °F 27.5 °F 27.0 °F 82% 29.90 in 10.0 mi SW 4.6 mph - N/A   Clear
5:53 AM 30.9 °F 27.5 °F 26.1 °F 82% 29.89 in 10.0 mi SSW 3.5 mph - N/A   Clear
6:53 AM 28.9 °F 25.2 °F 26.1 °F 89% 29.91 in 10.0 mi SSW 3.5 mph - N/A   Clear
7:53 AM 30.0 °F 26.5 °F 27.0 °F 88% 29.92 in 10.0 mi South 3.5 mph - N/A   Clear
8:53 AM 37.0 °F 31.6 °F 30.0 °F 76% 29.94 in 10.0 mi SSW 6.9 mph - N/A   Clear
9:53 AM 43.0 °F 39.5 °F 33.1 °F 68% 29.92 in 10.0 mi SSW 5.8 mph - N/A   Clear
10:53 AM 48.0 °F - 34.0 °F 58% 29.92 in - South 6.9 mph - N/A   Unknown
11:53 AM 52.0 °F - 35.1 °F 53% 29.88 in 10.0 mi North - - N/A   Clear
1:53 PM 54.0 °F - 34.0 °F 47% 29.82 in 10.0 mi South 10.4 mph - N/A   Clear
2:53 PM 54.0 °F - 33.1 °F 45% 29.81 in 10.0 mi South 11.5 mph - N/A   Clear
3:53 PM 52.0 °F - 35.1 °F 53% 29.80 in 10.0 mi South 6.9 mph - N/A   Clear
4:53 PM 50.0 °F - 34.0 °F 54% 29.79 in 10.0 mi SSE 8.1 mph - N/A   Clear
5:53 PM 46.9 °F - 33.1 °F 59% 29.77 in 10.0 mi SSE 8.1 mph - N/A   Clear
6:53 PM 43.0 °F 37.7 °F 33.1 °F 68% 29.78 in 10.0 mi SSE 9.2 mph - N/A   Clear
7:53 PM 45.0 °F 38.9 °F 33.1 °F 63% 29.77 in 10.0 mi SSE 12.7 mph - N/A   Clear
8:53 PM 42.1 °F 36.1 °F 33.1 °F 70% 29.77 in 10.0 mi SSE 10.4 mph - N/A   Clear
9:53 PM 39.0 °F 32.8 °F 33.1 °F 79% 29.75 in 10.0 mi SSE 9.2 mph - N/A   Clear
10:53 PM 39.9 °F 32.1 °F 34.0 °F 79% 29.74 in 10.0 mi SSE 13.8 mph - N/A   Clear
11:53 PM 39.9 °F 33.4 °F 35.1 °F 83% 29.74 in 10.0 mi SSE 10.4 mph - N/A   Clear